Location: Capvern
(43.1036°N, 0.3160°E)
Time: 04:23:28
(UTC+00:00)

CZ-2C R/B - Pass Details

Date: 16 October 2021
Orbit: 387 x 573 km, 35.0° (Epoch: 02 December)

Event Time Altitude Azimuth Distance (km) Brightness Sun altitude
Rises 19:09:29 0° 234° (SW) 2,352 5.2 -21.8°
Reaches altitude 10° 19:12:08 10° 213° (SSW) 1,459 3.8 -22.3°
Enters shadow 19:12:56 13° 201° (SSW) 1,266 3.3 -22.4°
